Location: Newark
(48.6800°N, 2.9300°W)
Time: 12:04:56
(UTC+00:00)

ISS - Visible Passes

Search period start: 20 July 2019 00:00
Search period end: 30 July 2019 00:00
Orbit: 409 x 418 km, 51.6° (Epoch: 20 July)

Date Brightness Start Highest point End Pass type
(mag) Time Alt. Az. Time Alt. Az. Time Alt. Az.
20 Jul -3.7 01:03:02 10° WNW 01:06:22 78° NNE 01:09:06 14° ESE visible
20 Jul -2.0 02:40:00 10° W 02:45:51 - SSE 02:41:11 17° W visible
20 Jul -3.8 20:59:57 10° SW 21:03:16 65° SSE 21:06:35 10° ENE visible
20 Jul -2.9 22:36:47 10° W 22:40:03 51° N 22:43:20 10° ENE visible
21 Jul -3.3 00:13:42 10° WNW 00:17:01 61° NNE 00:18:01 39° ENE visible
21 Jul -1.2 01:50:30 10° WNW 01:50:45 12° W 01:50:45 12° W visible
21 Jul -3.2 21:47:21 10° W 21:50:40 59° NNW 21:53:58 10° ENE visible
21 Jul -3.0 23:24:21 10° WNW 23:27:38 52° N 23:29:24 24° ENE visible
22 Jul -1.7 01:01:06 10° WNW 01:02:10 19° WNW 01:02:10 19° WNW visible
22 Jul -3.5 20:57:57 10° WSW 21:01:17 74° NNW 21:04:38 10° ENE visible
22 Jul -2.8 22:34:58 10° WNW 22:38:14 48° N 22:41:10 12° ENE visible
23 Jul -2.8 00:11:45 10° WNW 00:13:58 39° WNW 00:13:58 39° WNW visible
23 Jul -2.8 21:45:31 10° W 21:48:47 49° N 21:52:03 10° ENE visible
23 Jul -3.7 23:22:23 10° WNW 23:25:44 73° NNE 23:25:54 70° NE visible
24 Jul -2.9 20:56:03 10° W 20:59:21 53° N 21:02:38 10° ENE visible
24 Jul -3.3 22:33:00 10° WNW 22:36:20 58° NNE 22:37:56 27° E visible
25 Jul -1.5 00:09:47 10° WNW 00:10:44 17° W 00:10:44 17° W visible
25 Jul -3.0 21:43:36 10° WNW 21:46:54 51° N 21:50:00 11° E visible
25 Jul -3.0 23:20:21 10° WNW 23:22:49 44° W 23:22:49 44° W visible
26 Jul -2.8 20:54:10 10° WNW 20:57:25 48° N 21:00:41 10° ENE visible
26 Jul -3.9 22:30:57 10° WNW 22:34:19 88° NNE 22:34:56 57° ESE visible
27 Jul -3.5 21:41:33 10° WNW 21:44:54 68° NNE 21:47:04 20° E visible
27 Jul -1.8 23:18:24 10° W 23:19:53 21° W 23:19:53 21° W visible
28 Jul -3.2 20:52:08 10° WNW 20:55:27 56° N 20:58:44 10° E visible
28 Jul -3.5 22:28:53 10° WNW 22:32:03 49° SW 22:32:03 49° SW visible
29 Jul -3.8 21:39:26 10° WNW 21:42:46 73° SSW 21:44:15 30° SE visible
29 Jul -1.0 23:16:54 10° W 23:17:03 11° W 23:17:03 11° W visible
